Satellite: AO-40 Catalog number: 26609 Epoch time: 02304.62026620 Element set: 276 Inclination: 7.7142 deg RA of node: 85.0847 deg Eccentricity: 0.7931956 Arg of perigee: 106.4859 deg Mean anomaly: 345.9370 deg Mean motion: 1.25598032 rev/day Decay rate: -2.96000e-06 rev/day^2 Epoch rev: 920 Checksum: 306